Location: Malvern Link
(52.1333°N, 2.3000°W)
Time: 03:20:30
(UTC+00:00)

Cosmos 1634 Rocket - Pass Details

Date: 02 December 2021
Orbit: 959 x 993 km, 82.9° (Epoch: 21 January)

Event Time Altitude Azimuth Distance (km) Brightness Sun altitude
Rises 20:17:30 0° 246° (WSW) 3,704 7.6 -38.3°
Reaches altitude 10° 20:21:03 10° 266° (W) 2,761 7.0 -38.9°
Maximum altitude 20:25:02 17° 305° (NW) 2,291 6.4 -39.5°
Drops below altitude 10° 20:29:02 10° 345° (NNW) 2,768 6.6 -40.0°
Sets 20:32:38 0° 5° (N) 3,718 7.2 -40.6°
